Tracking 19709 objects as of 20-Jun-2019
HD Live streaming from Space Station
objects crossing your sky now

FENGYUN 1C DEB

Track FENGYUN 1C DEB now!
10-day predictions


NORAD ID: 31771
Int'l Code: 1999-025CFW
Perigee: 750.1 km
Apogee: 790.2 km
Inclination: 102.8 °
Period: 100.1 minutes
Semi major axis: 7141 km
RCS: 0.0073 m2 (small)
Launch date: May 10, 1999
Source: People's Republic of China (PRC)
Launch site: Taiyaun Space Center, China (TSC)

Note: This is SATELLITE DEBRIS
aabbcc
Your satellite tracking list
Your tracking list is empty




NASA's NSSDC Master Catalog

Two Line Element Set (TLE):
1 31771U 99025CFW 19167.63186238  .00000826  00000-0  29570-3 0  9997
2 31771 102.8079  94.0131 0028062   5.1827 354.9629 14.38628084628982
Source of the keplerian elements: AFSPC